Regional Weather Roundup
Issued by NWS Glasgow, MT

Home | Current Version | Previous Version | Text Only | Print | Product List | Glossary On
Versions: 1 2 3 4 5 6 7 8 9 10 11 12 13 14 15 16 17 18 19 20 21 22 23 24 25 26 27 28 29 30 31 32 33 34 35 36 37 38 39 40 41 42 43 44 45 46 47 48 49 50
000
ASUS45 KGGW 070815
RWRGGW
HOURLY WEATHER ROUNDUP FOR NORTHEAST MONTANA
NATIONAL WEATHER SERVICE GLASGOW MONTANA
200 AM MDT THU MAY 07 2015

NOTE: "FAIR" INDICATES FEW OR NO CLOUDS BELOW 12,000 FEET WITH NO
SIGNIFICANT WEATHER AND/OR OBSTRUCTIONS TO VISISBILITY.

NORTHEAST MONTANA


CITY           SKY/WX    TMP DP  RH WIND       PRES   REMARKS
GLASGOW        CLEAR     41  30  65 N17       29.96R
WOLF POINT     PTCLDY    45  35  68 NW15      29.92R
JORDAN           N/A     42  31  64 N14       29.96R
WINNETT          N/A     42  32  67 NW8         N/A
SIDNEY         CLOUDY    50  39  66 NW22G29   29.84S
GLENDIVE       CLOUDY    48  37  66 NW18      29.86S
MALTA            N/A     38  29  70 N9G18       N/A
SCOBEY           N/A     40  24  53 NW16      29.90S
OPHEIM           N/A     32  30  93 N14       29.86R

FORT PECK REPORTS


CITY           SKY/WX    TMP DP  RH WIND       PRES   REMARKS
FORT PECK        N/A     43  32  65 NW18        N/A
THE PINES        N/A     43  30  61 N9G18       N/A

SOUTHEAST MONTANA


CITY           SKY/WX    TMP DP  RH WIND       PRES   REMARKS
BILLINGS       CLOUDY    48  32  53 N9        29.96R
MILES CITY     CLOUDY    49  34  56 N17       29.90R
BAKER          CLOUDY    48  43  82 NW15      29.83R
LIVINGSTON     CLOUDY    46  30  53 E14       29.94R

CENTRAL MONTANA


CITY           SKY/WX    TMP DP  RH WIND       PRES   REMARKS
HAVRE          CLEAR     36  27  69 N12       30.09R
LEWISTOWN      MOCLDY    39  28  64 N6        30.01S
GREAT FALLS    PTCLDY    36  27  69 NE17      30.07R
CUT BANK       CLOUDY    34  25  69 N7        30.12R
HELENA         CLOUDY    47  28  47 N14       29.97R
BUTTE          CLOUDY    41  26  55 N10       29.94S
BOZEMAN        CLOUDY    48  31  51 CALM      29.93R

WESTERN MONTANA


CITY           SKY/WX    TMP DP  RH WIND       PRES   REMARKS
MISSOULA       CLOUDY    49  27  42 CALM      29.96R
KALISPELL      NOT AVBL

NORTH DAKOTA


CITY           SKY/WX    TMP DP  RH WIND       PRES   REMARKS
WILLISTON      CLOUDY    49  42  77 N22G31    29.81R
DICKINSON      LGT RAIN  49  46  90 NW23G31   29.72S
MINOT          LGT RAIN  53  51  93 NW20G28   29.65R FOG
BISMARCK       LGT RAIN  57  55  93 NW12      29.62F

SOUTHERN SASKATCHEWAN


CITY           SKY/WX    TMP DP  RH WIND       PRES   REMARKS
REGINA         CLOUDY    43  36  75 NW18G31   29.90R
ESTEVAN        LGT RAIN  46  43  87 NW25G35   29.79R
SWIFT CURRENT  CLOUDY    36  27  69 NW23G30   29.99S



USA.gov is the U.S. government's official web portal to all federal, state and local government web resources and services.